カタログに戻る

COSMOS 861

運用中軍事LEO
NORAD 9494·PAYLOAD·🇷🇺 Russia

打ち上げ Oct 21, 1976 から Baikonur Cosmodrome

Loading…

次のパス (今後24時間)

TLE

最新Source: Space-Track

元期: Sep 14, 2026, 05:14 UTC

1 09494U 76104A   26257.21861251 -.00000072  00000-0  15496-4 0  9991
2 09494  64.8592 189.5296 0040933 164.2578 195.9763 13.81727953518240

AllMySatでCOSMOS 861をリアルタイム追跡

Download on the App Store